Location: Austin
(30.3000°N, 97.7500°W)
Time: 22:52:39
(UTC-06:00)

Tiangong - Pass Details

Date: 03 December 2025
Orbit: 385 x 397 km, 41.5° (Epoch: 07 December)

Event Time Altitude Azimuth Distance (km) Brightness Sun altitude
Exits shadow 06:05:45 12° 347° (NNW) 1,343 0.3 -14.1°
Maximum altitude 06:06:11 12° 355° (N) 1,331 0.4 -14.0°
Drops below altitude 10° 06:07:27 10° 19° (NNE) 1,432 0.8 -13.7°
Sets 06:10:40 0° 53° (NE) 2,292 2.3 -13.1°
